Flag for Saudi Arabia Weather past 2 weeks in Medina, Saudi Arabia

Now
91 °F

Sunny.


Feels Like: 87 °F
Forecast: 83 / 112 °F
Wind: No wind

Location: Madinah

Current Time: Jul 6, 2015 at 6:58:11 AM

Latest Report: Jul 6, 2015 at 6:00 AM


Visibility: 6 mi

Pressure: 29.86 "Hg (27.91 "Hg at 606m altitude)

Humidity: 9%

Dew point: 25 °F

Location of MedinaLocation

Historic Weather in Medina — Graph

°F

Medina temperature yesterday

Maximum temperature yesterday: 113 °F (at 2:00 PM)
Minimum temperature yesterday: 93 °F (at 7:00 AM)
Average temperature yesterday: 105 °F

Past Weeks' High & Low Weather Summary

 TemperatureHumidityPressure
High113 °F (Jul 4, 4:00 PM)40% (Jun 23, 10:00 PM)29.98 "Hg (Jun 23, 10:00 PM)
Low77 °F (Jun 27, 6:00 AM)1% (Jun 21, 3:00 PM)29.71 "Hg (Jun 21, 6:00 PM)
Average96 °F10%29.86 "Hg
* Reported Jun 21 6:00 AM — Jul 6 6:00 AM, Medina, Weather by CustomWeather, © 2015

Note: Actual official high and low records may vary slightly from our data, if they occured in-between our weather recording intervals... More about our weather records

Advertising

Medina weather history for previous 24 hours

 ConditionsComfort  
Time TempWeatherWind HumidityBarometerVisibility
6:00 AM
Mon, Jul 6
91 °FSunny.No wind9%29.86 "Hg6 mi
5:00 AM93 °FClear.No wind8%29.86 "Hg10 mi
4:00 AM99 °FClear.5 mph7%29.86 "Hg10 mi
3:00 AM97 °FClear.No wind8%29.86 "Hg10 mi
2:00 AM99 °FClear.No wind7%29.86 "Hg10 mi
1:00 AM102 °FClear.5 mph6%29.86 "Hg10 mi
12:00 AM104 °FPassing clouds.13 mph5%29.89 "HgN/A
11:00 PM
Sun, Jul 5
106 °FPassing clouds.14 mph5%29.89 "HgN/A
10:00 PM106 °FPassing clouds.18 mph7%29.86 "HgN/A
9:00 PM106 °FPassing clouds.3 mph2%29.86 "HgN/A
8:00 PM108 °FPassing clouds.3 mph2%29.86 "HgN/A
7:00 PM109 °FScattered clouds.10 mph2%29.83 "HgN/A
6:00 PM111 °FScattered clouds.10 mph2%29.83 "Hg6 mi
5:00 PM113 °FScattered clouds.No wind1%29.83 "Hg5 mi
4:00 PM113 °FPartly sunny.7 mph2%29.83 "Hg4 mi
3:00 PM111 °FPartly sunny.6 mph1%29.86 "Hg5 mi
2:00 PM113 °FPassing clouds.10 mph1%29.86 "Hg5 mi
1:00 PM111 °FPassing clouds.12 mph3%29.89 "Hg5 mi
12:00 PM109 °FSunny.8 mph2%29.89 "Hg5 mi
11:00 AM108 °FSunny.16 mph3%29.92 "Hg5 mi
10:00 AM106 °FSunny.No wind3%29.92 "Hg5 mi
9:00 AM100 °FSunny.5 mph4%29.92 "Hg5 mi
8:00 AM99 °FSunny.9 mph4%29.92 "Hg10 mi
7:00 AM93 °FSunny.8 mph7%29.89 "Hg10 mi
6:00 AM95 °FSunny.8 mph6%29.89 "Hg10 mi
Weather by CustomWeather, © 2015

See weather overviewHow to use our weather pages